Weather History for Clarion, IA

Change the Weather History Date:

Sunday, October 30, 2011

  Actual Average Record
Temperature  
Mean Temperature 48 °F -  
Max Temperature 53 °F 55 °F 83 °F (1950)
Min Temperature 42 °F 34 °F 16 °F (1988)
Degree Days  
Heating Degree Days 18    
Moisture  
Dew Point 27 °F    
Average Humidity 47    
Maximum Humidity 71    
Minimum Humidity 33    
Precipitation  
Precipitation 0.00 in - - ()
Sea Level Pressure  
Sea Level Pressure 29.86 in    
Wind  
Wind Speed 17 mph (West)    
Max Wind Speed 26 mph    
Max Gust Speed 36 mph    
Visibility 10 miles    
Events      
Averages and records for this station are not official NWS values.
T = Trace of Precipitation, MM = Missing Value Source: NWS Daily Summary

Daily Weather History Graph

Daily Weather History Graph

Search for Another Location

Airport:

Trip Planner

Search our weather history database for the weather conditions in past years. The results will help you decide how hot, cold, wet, or windy it might be!

Date:

Astronomy

Oct. 30, 2011 Rise Set
Actual Time 7:46 AM CDT 6:10 PM CDT
Civil Twilight 7:16 AM CDT 6:39 PM CDT
Nautical Twilight 6:43 AM CDT 7:13 PM CDT
Astronomical Twilight 6:10 AM CDT 7:45 PM CDT
Moon 12:10 PM CDT (10/30) 9:36 PM CDT (10/30)
Length of Visible Light 11h 22m
Length of Day
10h 24m
Waxing Crescent, 20% of the Moon is Illuminated
Oct 30
Waxing Crescent
Nov 2
First Quarter
Nov 10
Full
Nov 18
Last Quarter
Nov 25
New

Hourly Weather History & Observations

Time (CDT) Temp. Windchill Dew Point Humidity Pressure Visibility Wind Dir Wind Speed Gust Speed Precip Events Conditions
12:15 AM 46.4 °F 39.2 °F 19.4 °F 34% 29.84 in 10.0 mi SE 18.4 mph 27.6 mph N/A   Mostly Cloudy
12:35 AM 46.4 °F 38.5 °F 21.2 °F 37% 29.83 in 10.0 mi SE 21.9 mph 26.5 mph N/A   Mostly Cloudy
12:55 AM 46.4 °F 38.7 °F 19.4 °F 34% 29.83 in 10.0 mi SE 20.7 mph 26.5 mph N/A   Overcast
1:15 AM 46.4 °F 37.9 °F 21.2 °F 37% 29.81 in 10.0 mi SE 25.3 mph 28.8 mph N/A   Overcast
1:35 AM 46.4 °F 39.0 °F 21.2 °F 37% 29.81 in 10.0 mi SE 19.6 mph 24.2 mph N/A   Mostly Cloudy
1:55 AM 46.4 °F 39.5 °F 21.2 °F 37% 29.81 in 10.0 mi SE 17.3 mph - N/A   Scattered Clouds
2:15 AM 46.4 °F 40.1 °F 21.2 °F 37% 29.81 in 10.0 mi SE 15.0 mph - N/A   Scattered Clouds
2:35 AM 44.6 °F 38.8 °F 23.0 °F 43% 29.80 in 10.0 mi SE 11.5 mph - N/A   Mostly Cloudy
3:15 AM 46.4 °F 40.4 °F 26.6 °F 46% 29.78 in 10.0 mi SE 13.8 mph - N/A   Mostly Cloudy
3:55 AM 46.4 °F 41.1 °F 26.6 °F 46% 29.79 in 10.0 mi SSE 11.5 mph - N/A   Overcast
4:15 AM 46.4 °F 40.1 °F 26.6 °F 46% 29.78 in 10.0 mi SSE 15.0 mph - N/A   Overcast
4:35 AM 46.4 °F 40.4 °F 26.6 °F 46% 29.78 in 10.0 mi SSE 13.8 mph - N/A   Overcast
4:55 AM 46.4 °F 41.5 °F 28.4 °F 50% 29.78 in 10.0 mi South 10.4 mph - N/A   Overcast
5:15 AM 44.6 °F 39.7 °F 28.4 °F 53% 29.78 in 10.0 mi South 9.2 mph - N/A   Scattered Clouds
5:35 AM 44.6 °F 39.7 °F 28.4 °F 53% 29.79 in 10.0 mi South 9.2 mph - N/A   Mostly Cloudy
5:55 AM 44.6 °F 40.2 °F 30.2 °F 57% 29.79 in 10.0 mi South 8.1 mph - N/A   Overcast
6:15 AM 44.6 °F 40.7 °F 30.2 °F 57% 29.79 in 10.0 mi South 6.9 mph - N/A   Overcast
6:35 AM 44.6 °F 40.2 °F 30.2 °F 57% 29.79 in 10.0 mi SSW 8.1 mph - N/A   Overcast
7:15 AM 44.6 °F 39.2 °F 28.4 °F 53% 29.81 in 10.0 mi WSW 10.4 mph - N/A   Overcast
7:35 AM 44.6 °F 38.4 °F 26.6 °F 49% 29.81 in 10.0 mi West 12.7 mph - N/A   Mostly Cloudy
7:55 AM 42.8 °F 36.6 °F 28.4 °F 57% 29.81 in 10.0 mi West 11.5 mph - N/A   Scattered Clouds
8:15 AM 42.8 °F 35.8 °F 28.4 °F 57% 29.82 in 10.0 mi West 13.8 mph - N/A   Clear
8:35 AM 42.8 °F 35.1 °F 30.2 °F 61% 29.83 in 10.0 mi West 16.1 mph - N/A   Mostly Cloudy
8:55 AM 42.8 °F 35.1 °F 30.2 °F 61% 29.84 in 10.0 mi West 16.1 mph 24.2 mph N/A   Overcast
9:15 AM 42.8 °F 33.8 °F 33.8 °F 70% 29.84 in 10.0 mi WNW 21.9 mph 26.5 mph N/A   Scattered Clouds
9:35 AM 44.6 °F 36.6 °F 33.8 °F 66% 29.85 in 10.0 mi WNW 19.6 mph 26.5 mph N/A   Clear
9:55 AM 44.6 °F 37.2 °F 35.6 °F 71% 29.85 in 10.0 mi WNW 17.3 mph 29.9 mph N/A   Scattered Clouds
10:15 AM 46.4 °F 39.0 °F 35.6 °F 66% 29.85 in 10.0 mi WNW 19.6 mph 24.2 mph N/A   Scattered Clouds
10:35 AM 46.4 °F 39.5 °F 35.6 °F 66% 29.85 in 10.0 mi NW 17.3 mph 26.5 mph N/A   Clear
10:55 AM 48.2 °F - 35.6 °F 62% 29.85 in 10.0 mi WNW 17.3 mph 25.3 mph N/A   Scattered Clouds
11:15 AM 48.2 °F - 35.6 °F 62% 29.85 in 10.0 mi WNW 23.0 mph - N/A   Mostly Cloudy
11:35 AM 48.2 °F - 35.6 °F 62% 29.86 in 10.0 mi WNW 17.3 mph 25.3 mph N/A   Mostly Cloudy
11:55 AM 48.2 °F - 33.8 °F 58% 29.86 in 10.0 mi WNW 21.9 mph 26.5 mph N/A   Mostly Cloudy
12:15 PM 48.2 °F - 33.8 °F 58% 29.86 in 10.0 mi West 24.2 mph 27.6 mph N/A   Mostly Cloudy
12:35 PM 51.8 °F - 33.8 °F 50% 29.86 in 10.0 mi West 20.7 mph 27.6 mph N/A   Mostly Cloudy
12:55 PM 51.8 °F - 30.2 °F 44% 29.86 in 10.0 mi WNW 24.2 mph 32.2 mph N/A   Mostly Cloudy
1:15 PM 51.8 °F - 30.2 °F 44% 29.86 in 10.0 mi West 20.7 mph 28.8 mph N/A   Mostly Cloudy
1:35 PM 53.6 °F - 26.6 °F 35% 29.86 in 10.0 mi WNW 20.7 mph 34.5 mph N/A   Mostly Cloudy
1:55 PM 51.8 °F - 26.6 °F 38% 29.86 in 10.0 mi WNW 21.9 mph - N/A   Scattered Clouds
2:15 PM 51.8 °F - 26.6 °F 38% 29.86 in 10.0 mi WNW 24.2 mph 33.4 mph N/A   Clear
2:35 PM 51.8 °F - 24.8 °F 35% 29.86 in 10.0 mi WNW 23.0 mph 31.1 mph N/A   Clear
2:55 PM 51.8 °F - 24.8 °F 35% 29.86 in 10.0 mi WNW 26.5 mph 35.7 mph N/A   Scattered Clouds
3:15 PM 51.8 °F - 24.8 °F 35% 29.87 in 10.0 mi WNW 24.2 mph 29.9 mph N/A   Scattered Clouds
3:35 PM 51.8 °F - 24.8 °F 35% 29.87 in 10.0 mi WNW 18.4 mph 25.3 mph N/A   Scattered Clouds
3:55 PM 50.0 °F - 23.0 °F 35% 29.88 in 10.0 mi WNW 23.0 mph 28.8 mph N/A   Scattered Clouds
4:15 PM 51.8 °F - 23.0 °F 33% 29.88 in 10.0 mi West 23.0 mph 32.2 mph N/A   Scattered Clouds
4:35 PM 50.0 °F - 23.0 °F 35% 29.89 in 10.0 mi WNW 18.4 mph 25.3 mph N/A   Scattered Clouds
4:55 PM 51.8 °F - 23.0 °F 33% 29.89 in 10.0 mi NW 19.6 mph 26.5 mph N/A   Mostly Cloudy
5:15 PM 48.2 °F - 23.0 °F 37% 29.90 in 10.0 mi WNW 15.0 mph 21.9 mph N/A   Mostly Cloudy
5:35 PM 48.2 °F - 23.0 °F 37% 29.90 in 10.0 mi WNW 19.6 mph 24.2 mph N/A   Mostly Cloudy
5:55 PM 48.2 °F - 23.0 °F 37% 29.91 in 10.0 mi NW 12.7 mph 23.0 mph N/A   Mostly Cloudy
6:15 PM 46.4 °F 40.7 °F 23.0 °F 40% 29.92 in 10.0 mi WNW 12.7 mph - N/A   Scattered Clouds
6:35 PM 46.4 °F 41.1 °F 23.0 °F 40% 29.93 in 10.0 mi WNW 11.5 mph - N/A   Mostly Cloudy
6:55 PM 46.4 °F 41.5 °F 23.0 °F 40% 29.94 in 10.0 mi WNW 10.4 mph 17.3 mph N/A   Overcast
7:15 PM 46.4 °F 40.7 °F 24.8 °F 43% 29.94 in 10.0 mi NW 12.7 mph - N/A   Overcast
7:35 PM 46.4 °F 40.1 °F 24.8 °F 43% 29.95 in 10.0 mi NW 15.0 mph 23.0 mph N/A   Overcast
7:55 PM 44.6 °F 37.8 °F 24.8 °F 46% 29.96 in 10.0 mi NW 15.0 mph 20.7 mph N/A   Overcast
8:15 PM 44.6 °F 37.4 °F 24.8 °F 46% 29.96 in 10.0 mi NW 16.1 mph 21.9 mph N/A   Overcast
8:35 PM 44.6 °F 38.1 °F 26.6 °F 49% 29.96 in 10.0 mi WNW 13.8 mph 24.2 mph N/A   Overcast
8:55 PM 44.6 °F 37.8 °F 24.8 °F 46% 29.96 in 10.0 mi NW 15.0 mph - N/A   Overcast
9:15 PM 42.8 °F 36.2 °F 26.6 °F 53% 29.96 in 10.0 mi NW 12.7 mph - N/A   Overcast
9:35 PM 42.8 °F 37.5 °F 24.8 °F 49% 29.97 in 10.0 mi WNW 9.2 mph - N/A   Overcast
9:55 PM 42.8 °F 37.5 °F 26.6 °F 53% 29.97 in 10.0 mi WNW 9.2 mph - N/A   Overcast
10:15 PM 42.8 °F 37.0 °F 26.6 °F 53% 29.98 in 10.0 mi WNW 10.4 mph - N/A   Overcast
10:35 PM 42.8 °F 37.0 °F 26.6 °F 53% 29.98 in 10.0 mi WNW 10.4 mph 16.1 mph N/A   Overcast
10:55 PM 42.8 °F 36.6 °F 26.6 °F 53% 29.98 in 10.0 mi WNW 11.5 mph - N/A   Overcast
11:15 PM 42.8 °F 36.2 °F 26.6 °F 53% 29.98 in 10.0 mi WNW 12.7 mph - N/A   Overcast
11:35 PM 42.8 °F 35.4 °F 28.4 °F 57% 29.98 in 10.0 mi NW 15.0 mph - N/A   Overcast
11:55 PM 41.0 °F 34.7 °F 28.4 °F 61% 29.98 in 10.0 mi NW 10.4 mph - N/A   Overcast